Weather History for Troy, AL

Change the Weather History Date:

Tuesday, December 18, 2012

  Actual Average Record
Temperature  
Mean Temperature 51 °F 48 °F  
Max Temperature 66 °F 59 °F 80 °F (2006)
Min Temperature 36 °F 36 °F 21 °F (2000)
Degree Days  
Heating Degree Days 14 18  
Month to date heating degree days 157 285  
Since 1 July heating degree days 625 678  
Moisture  
Dew Point 44 °F    
Average Humidity 61    
Maximum Humidity 93    
Minimum Humidity 28    
Precipitation  
Precipitation 0.00 in 0.16 in 0.22 in (2000)
Month to date precipitation 2.47 3.10  
Year to date precipitation 53.72 52.88  
Snow  
Snow 0.00 in - - ()
Month to date snowfall 0.0  
Since 1 July snowfall 0.0  
Snow Depth 0.00 in    
Sea Level Pressure  
Sea Level Pressure 29.96 in    
Wind  
Wind Speed 2 mph (WNW)    
Max Wind Speed 9 mph    
Max Gust Speed 16 mph    
Visibility 6 miles    
Events      
T = Trace of Precipitation, MM = Missing Value Source: NWS Daily Summary

Daily Weather History Graph

Daily Weather History Graph

Search for Another Location

Airport:

Trip Planner

Search our weather history database for the weather conditions in past years. The results will help you decide how hot, cold, wet, or windy it might be!

Date:

Astronomy

Dec. 18, 2012 Rise Set
Actual Time 6:38 AM CST 4:43 PM CST
Civil Twilight 6:11 AM CST 5:10 PM CST
Nautical Twilight 5:41 AM CST 5:40 PM CST
Astronomical Twilight 5:11 AM CST 6:10 PM CST
Moon 10:37 AM CST (12/18) 10:47 PM CST (12/18)
Length of Visible Light 10h 58m
Length of Day
10h 04m
Waxing Crescent, 35% of the Moon is Illuminated
Dec 18
Waxing Crescent
Dec 19
First Quarter
Dec 28
Full
Jan 4
Last Quarter
Jan 11
New

Hourly Weather History & Observations

Time (CST) Temp. Windchill Dew Point Humidity Pressure Visibility Wind Dir Wind Speed Gust Speed Precip Events Conditions
12:12 AM 59.0 °F - 55.4 °F 88% 29.84 in 5.0 mi WSW 6.9 mph - N/A   Mostly Cloudy
12:53 AM 57.9 °F - 55.9 °F 93% 29.84 in 5.0 mi West 5.8 mph - N/A   Mostly Cloudy
1:09 AM 57.2 °F - 55.4 °F 94% 29.85 in 5.0 mi WNW 3.5 mph - N/A   Mostly Cloudy
1:53 AM 55.9 °F - 54.0 °F 93% 29.86 in 5.0 mi WSW 3.5 mph - N/A   Clear
2:35 AM 53.6 °F - 53.6 °F 100% 29.87 in 1.8 mi West 3.5 mph - 0.01 in   Clear
2:40 AM 53.6 °F - 53.6 °F 100% 29.87 in 1.2 mi West 4.6 mph - 0.01 in   Clear
2:44 AM 53.6 °F - 53.6 °F 100% 29.87 in 1.8 mi West 4.6 mph - 0.01 in   Clear
2:50 AM 55.4 °F - 53.6 °F 94% 29.87 in 3.0 mi West 4.6 mph - 0.01 in   Clear
2:51 AM 55.0 °F - 53.1 °F 93% 29.87 in 3.0 mi West 4.6 mph - 0.01 in   Clear
3:53 AM 54.0 °F - 52.0 °F 93% 29.89 in 5.0 mi West 3.5 mph - N/A   Clear
4:53 AM 51.1 °F - 48.9 °F 92% 29.91 in 7.0 mi WNW 3.5 mph - N/A   Clear
5:53 AM 48.0 °F - 46.0 °F 93% 29.94 in 5.0 mi WNW 3.5 mph - N/A   Clear
6:45 AM 44.6 °F 42.2 °F 44.6 °F 100% 29.96 in 1.8 mi WNW 4.6 mph - N/A   Clear
6:53 AM 46.0 °F 44.8 °F 45.0 °F 96% 29.96 in 2.0 mi WNW 3.5 mph - N/A   Clear
7:00 AM 46.4 °F - 44.6 °F 93% 29.97 in 5.0 mi Calm Calm - N/A   Clear
7:12 AM 42.8 °F - 42.8 °F 100% 29.98 in 1.2 mi Calm Calm - N/A   Clear
7:14 AM 42.8 °F - 42.8 °F 100% 29.98 in 0.8 mi Calm Calm - N/A   Clear
7:23 AM 44.6 °F - 42.8 °F 93% 29.98 in 1.2 mi Calm Calm - N/A   Clear
7:25 AM 44.6 °F - 44.6 °F 100% 29.98 in 2.0 mi Calm Calm - N/A   Clear
7:30 AM 46.4 °F - 44.6 °F 93% 29.98 in 1.5 mi Calm Calm - N/A   Clear
7:39 AM 46.4 °F - 46.4 °F 100% 29.99 in 2.0 mi Calm Calm - N/A   Clear
7:53 AM 50.0 °F - 45.0 °F 83% 29.99 in 8.0 mi NNW 3.5 mph - N/A   Clear
8:53 AM 52.0 °F - 44.1 °F 74% 30.01 in 10.0 mi North 4.6 mph - 0.01 in   Clear
9:53 AM 55.9 °F - 41.0 °F 57% 30.03 in 10.0 mi North 8.1 mph - N/A   Clear
10:53 AM 59.0 °F - 39.0 °F 48% 30.03 in 10.0 mi Calm Calm - N/A   Clear
11:53 AM 62.1 °F - 35.1 °F 37% 30.00 in 10.0 mi North 9.2 mph - N/A   Clear
12:53 PM 63.0 °F - 36.0 °F 37% 29.99 in 10.0 mi Calm Calm - N/A   Clear
1:53 PM 64.9 °F - 34.0 °F 32% 29.98 in 10.0 mi NNW 4.6 mph - N/A   Clear
2:53 PM 64.0 °F - 30.0 °F 28% 29.98 in 10.0 mi Calm Calm - N/A   Clear
3:53 PM 64.0 °F - 32.0 °F 30% 29.99 in 10.0 mi Calm Calm - N/A   Clear
4:53 PM 55.9 °F - 42.1 °F 60% 29.99 in 10.0 mi Calm Calm - N/A   Clear
5:53 PM 48.9 °F - 41.0 °F 74% 30.01 in 10.0 mi Calm Calm - N/A   Clear
6:53 PM 46.0 °F - 41.0 °F 83% 30.03 in 10.0 mi Calm Calm - N/A   Clear
7:53 PM 43.0 °F - 39.9 °F 89% 30.04 in 10.0 mi Calm Calm - N/A   Clear
8:53 PM 41.0 °F - 37.9 °F 89% 30.04 in 9.0 mi Calm Calm - N/A   Clear
9:53 PM 39.0 °F - 37.0 °F 93% 30.05 in 10.0 mi Calm Calm - N/A   Clear
10:53 PM 37.9 °F - 36.0 °F 93% 30.05 in 9.0 mi Calm Calm - N/A   Clear
11:53 PM 37.0 °F - 34.0 °F 89% 30.04 in 8.0 mi Calm Calm - N/A   Clear